RH
10 9 9 8 8 8 8 8 7 7 7 7 7 7 7 7 7 7 7 7 7 7 6 6 5 4 3 3 3 3 4 4 4 4 5 5 4 4 4 4 4 4 4
10 10 9 9 8 8 9 8 7 7 7 7 7 8 7 7 7 7 7 7 8 8 9 9 8 6 5 4 4 4 4 4 4 4 4 4 4 4 4 4 4 4 4
17 18 16 16 17 14 11 8 7 7 7 8 8 8 8 7 8 8 8 8 9 11 13 15 17 19 19 18 17 13 11 9 7 5 5 5 5 5 5 5 5 5 5
26 29 31 29 29 26 19 13 10 9 8 8 8 8 8 8 8 8 9 11 13 15 16 16 17 17 18 18 18 17 14 11 10 8 8 7 6 6 6 5 5 5 5
33 30 28 28 30 31 30 25 18 12 10 9 8 8 8 8 8 10 11 14 17 18 16 18 20 22 21 20 20 17 12 8 7 7 6 6 5 4 4 4 3 3 3
33 31 29 28 31 33 34 35 34 23 13 10 9 8 8 8 9 12 17 18 18 20 19 21 23 23 20 15 14 9 7 7 7 6 5 4 4 3 3 3 2 2 2
36 34 31 31 36 39 41 40 39 35 26 12 9 8 8 8 10 13 21 22 20 20 21 23 21 19 16 11 8 7 7 7 7 6 5 4 3 3 2 2 2 2 2
41 39 37 37 38 41 40 38 38 41 34 17 10 9 9 9 10 16 21 23 21 21 23 24 22 18 16 9 7 7 8 7 6 5 4 3 3 2 2 3 3 3 2
43 42 41 43 46 45 43 42 39 38 40 20 11 10 9 9 11 16 21 22 21 22 22 22 22 18 13 8 7 8 7 6 5 4 3 2 2 3 4 3 2 2 2
46 44 47 50 52 48 42 42 36 46 47 23 13 11 10 9 10 17 20 20 22 22 20 22 20 17 10 7 8 7 6 6 5 4 2 2 4 5 3 1 2 3 5
52 50 50 53 54 50 46 45 37 47 48 33 18 13 12 11 10 12 14 19 23 21 22 24 18 13 8 8 8 7 6 5 4 2 2 6 6 3 2 2 3 4 5
55 55 56 60 57 48 47 48 44 26 52 39 21 15 14 15 12 11 13 19 21 23 24 20 17 12 8 8 8 7 5 5 3 2 5 8 5 3 2 2 3 4 4
60 60 63 61 60 52 52 52 46 30 49 48 31 30 34 29 15 13 13 19 23 24 25 19 16 9 8 8 8 6 5 4 2 3 8 7 4 3 2 3 3 4 4
68 65 62 60 60 58 54 58 50 37 56 54 36 30 21 18 18 15 15 22 22 25 23 18 14 9 9 8 8 6 5 4 2 5 9 8 5 3 3 3 3 3 4
73 73 67 65 66 64 59 66 52 37 49 51 37 25 28 24 25 19 17 19 24 24 20 18 10 9 9 9 8 6 5 4 2 6 9 7 6 4 3 3 3 3 4
79 78 68 66 67 66 56 57 57 43 43 35 32 30 38 40 27 18 18 20 25 24 20 14 10 9 9 9 8 6 4 3 2 4 9 7 6 5 4 3 3 3 5
89 87 79 68 67 60 56 63 63 45 43 40 28 28 34 39 32 21 24 25 24 23 17 12 10 9 9 9 8 7 4 3 3 5 8 7 6 6 4 3 3 3 5
78 73 72 78 68 66 67 65 65 53 42 43 26 22 29 32 30 30 26 23 24 20 14 12 11 10 10 10 9 8 4 3 7 8 9 8 5 6 6 4 3 3 4
82 75 73 72 58 63 74 60 70 74 65 43 41 24 20 27 31 31 27 26 22 18 14 12 12 10 10 10 10 9 5 4 6 7 9 7 5 5 6 6 4 4 4
93 96 96 81 70 73 66 65 71 76 75 50 43 32 18 19 27 29 28 25 22 17 14 14 12 10 10 10 10 11 6 5 6 10 11 7 6 6 6 7 7 4 4
86 84 97 95 89 95 80 69 72 79 77 47 42 34 20 14 20 24 25 24 22 18 15 15 13 11 10 10 11 11 11 6 6 11 13 7 6 6 6 6 7 8 6
86 96 96 95 94 93 95 82 79 86 75 43 42 36 26 17 16 18 20 20 18 17 16 16 14 12 9 10 11 12 12 7 5 12 13 7 6 6 6 7 7 8 8
87 84 83 92 96 96 94 89 89 93 78 41 44 45 37 27 18 17 18 19 18 17 16 15 14 11 9 10 11 12 12 7 5 8 14 10 7 7 7 7 7 7 8
56 61 68 97 96 97 91 98 97 80 47 38 38 44 44 37 27 21 19 19 18 17 15 15 13 10 10 11 12 12 11 6 4 9 21 15 8 8 8 9 9 8 9
64 90 89 92 91 87 99 91 83 57 42 38 37 42 37 32 27 23 22 20 18 17 16 13 10 10 11 12 13 10 9 6 5 9 18 15 11 9 8 9 9 10 9
94 100 94 96 90 66 84 69 60 56 39 35 34 38 41 39 35 31 27 22 18 16 11 10 11 12 14 12 9 16 18 15 10 13 16 16 16 15 11 9 8 8 8
Wind_Speed
12 12 11 11 10 9 8 8 7 7 7 7 7 7 8 9 10 11 12 13 13 14 14 15 15 15 15 16 16 15 16 16 16 15 14 14 14 13 14 14 15 16 17
14 12 11 11 10 9 8 7 6 5 5 5 6 6 7 8 9 11 12 13 14 14 15 16 16 15 16 16 16 16 17 17 18 17 18 19 19 20 21 21 21 22 23
14 13 12 11 10 8 7 6 4 4 3 3 4 5 6 7 8 9 11 11 12 13 14 15 15 16 18 18 19 18 18 19 20 21 23 24 24 26 27 28 29 30 29
14 14 12 10 8 7 5 3 2 2 2 1 2 3 4 5 6 7 8 9 9 11 14 16 18 19 20 19 20 21 21 21 21 23 25 27 30 31 33 34 35 35 34
16 14 11 8 7 6 5 3 2 1 2 2 2 2 3 3 4 4 6 8 11 14 16 18 19 21 21 20 20 20 20 21 22 25 28 31 34 36 37 38 38 38 39
15 12 9 7 6 6 5 4 5 4 3 3 3 2 2 2 2 2 4 8 11 14 16 18 19 19 19 19 19 18 20 22 26 31 33 35 36 37 39 41 43 44 44
15 11 9 6 6 4 4 4 5 5 6 5 4 4 3 3 4 4 6 8 11 14 16 17 18 20 21 20 19 19 22 26 31 35 38 39 40 41 42 43 44 44 43
14 12 9 6 5 2 1 5 8 7 7 6 5 5 5 6 6 7 9 10 13 14 16 18 20 22 22 21 20 22 26 31 35 38 40 40 41 43 41 39 40 43 45
16 14 10 6 5 2 3 9 10 9 7 6 6 7 7 8 9 10 11 12 14 16 19 21 22 23 22 21 22 26 31 34 37 40 43 43 43 37 36 39 39 37 35
18 15 11 7 5 3 7 11 12 10 8 8 8 9 10 10 12 13 13 15 16 18 22 24 23 23 23 23 25 29 33 37 41 45 46 42 34 35 39 37 31 29 28
17 15 12 10 8 7 9 12 12 11 9 9 10 11 11 12 13 14 16 17 18 21 22 25 23 23 23 24 27 31 35 40 45 46 41 31 34 33 33 31 28 25 28
18 17 15 13 11 11 12 12 15 14 13 12 12 12 14 14 15 17 18 18 20 23 24 23 23 22 23 25 29 32 37 44 46 41 29 32 31 31 29 30 29 26 30
24 18 16 15 14 15 15 13 17 18 17 15 15 15 16 17 18 18 18 19 21 24 23 22 23 23 24 27 30 34 40 44 44 30 27 30 31 30 28 29 29 30 27
29 23 19 19 18 19 18 14 18 18 16 17 17 18 19 20 20 20 20 20 23 25 23 24 24 24 25 28 31 35 40 43 36 25 28 30 31 30 29 28 30 32 25
34 33 23 23 22 21 20 16 20 17 16 18 19 19 21 22 22 21 22 23 24 24 25 25 25 26 28 30 33 35 39 39 31 26 30 30 30 31 30 29 30 29 26
35 33 32 30 28 25 24 24 24 20 19 19 21 20 21 22 22 22 23 25 25 25 26 26 27 29 30 31 34 36 39 36 29 27 28 30 29 30 30 30 28 25 25
42 41 40 37 34 33 30 31 24 21 20 21 21 23 22 23 24 24 25 26 27 27 27 26 28 30 31 33 35 37 38 33 28 27 30 31 28 29 29 28 28 25 23
48 44 41 40 36 38 36 36 25 21 21 22 21 24 24 24 25 26 26 27 28 28 27 28 31 32 33 36 37 39 38 32 27 29 31 31 29 29 30 30 29 26 25
39 38 38 39 40 34 28 30 28 25 23 23 23 23 25 26 27 28 28 29 29 29 28 30 33 35 36 38 40 41 39 32 30 32 33 31 29 30 30 28 30 29 28
44 40 39 40 39 36 33 34 31 28 26 25 25 25 26 28 29 31 31 31 31 31 32 33 35 36 38 39 42 42 39 36 34 35 34 32 31 29 29 27 28 28 28
45 50 54 48 43 38 36 34 34 30 29 27 27 27 28 30 31 33 34 34 34 34 35 37 37 39 40 42 43 43 43 41 38 37 34 31 31 29 27 27 27 28 28
46 66 57 51 43 43 39 37 35 32 31 29 28 29 30 30 33 34 35 36 37 37 38 39 40 40 42 42 43 44 44 44 43 39 35 31 29 29 28 27 29 30 30
53 51 42 45 44 47 33 35 34 34 36 32 31 31 32 33 34 35 36 38 39 40 41 41 42 42 41 43 45 47 47 44 41 41 37 33 30 28 29 28 30 32 34
51 46 41 33 27 24 28 35 41 30 31 32 33 34 35 35 36 37 39 41 42 43 44 44 44 43 43 45 47 50 51 47 41 37 36 36 33 32 31 29 31 34 36
58 39 44 51 39 26 25 24 26 27 33 33 33 35 36 36 39 41 42 44 46 46 46 45 44 44 45 47 49 49 46 42 40 37 36 33 35 36 36 36 37 37 38
31 29 26 25 26 29 29 26 29 32 34 33 36 37 39 40 42 44 46 47 48 48 46 45 46 46 48 49 47 43 41 40 38 36 37 39 38 39 41 43 43 43 40
Wind_Direction
148 144 138 131 126 119 114 112 110 105 94 86 76 65 56 46 39 35 33 31 25 23 23 23 23 21 18 15 13 9 9 7 3 355 347 341 335 331 327 323 319 316 313
148 142 134 128 122 119 116 114 115 105 90 79 69 57 50 40 34 30 24 21 22 23 28 27 22 14 7 3 358 354 352 349 345 339 332 327 323 318 316 314 313 311 309
149 142 133 124 115 112 112 117 118 106 88 75 60 47 38 38 32 25 20 18 17 18 13 9 7 3 1 358 351 346 343 338 335 330 328 325 325 323 321 320 317 314 310
151 142 131 118 113 106 102 100 90 63 40 36 44 40 27 22 27 21 20 13 12 3 359 357 354 350 347 344 340 339 340 338 338 335 333 331 329 328 326 321 316 312 308
154 145 132 114 109 94 77 55 38 5 332 319 330 347 13 16 15 20 3 355 355 354 354 355 351 346 338 335 336 335 335 337 336 334 333 331 327 325 321 316 311 306 302
160 153 146 124 119 101 77 44 6 340 319 299 295 310 336 342 332 337 340 339 348 353 353 350 346 347 341 336 334 334 335 335 337 336 332 328 324 320 316 312 307 304 302
172 170 166 143 137 117 64 34 3 327 310 297 290 288 289 277 281 294 314 330 337 342 343 345 348 345 340 335 331 332 334 338 337 335 331 326 322 316 312 308 307 306 303
187 189 184 165 156 141 4 350 341 322 299 287 279 273 273 270 272 282 301 318 327 329 331 336 337 336 336 332 332 334 337 338 336 332 327 322 317 314 312 311 308 305 302
202 204 200 192 174 200 328 336 334 315 292 278 276 272 271 271 273 281 296 308 314 320 325 330 332 329 329 330 335 338 339 337 334 329 325 322 319 318 318 316 314 316 320
205 209 209 211 211 269 318 321 320 312 290 275 270 273 273 273 276 282 294 301 308 313 322 327 329 328 328 330 338 340 338 335 331 331 329 327 324 323 323 322 323 330 332
207 213 217 220 235 268 297 298 310 307 286 277 273 271 276 280 281 284 290 296 305 314 320 325 325 325 325 332 336 337 337 336 335 333 331 330 329 328 330 331 330 327 325
211 217 222 226 247 267 280 288 306 299 286 277 270 271 275 280 283 283 287 295 304 312 319 321 321 318 324 331 334 334 337 339 337 334 332 332 328 327 333 335 328 323 322
214 217 223 234 250 262 270 282 297 302 282 273 271 270 277 281 280 283 286 295 303 312 315 316 316 317 324 330 331 334 339 339 337 333 333 332 325 326 330 331 326 322 321
217 219 228 236 244 255 263 274 296 296 281 271 269 270 275 275 278 281 285 293 302 308 309 313 314 315 321 326 328 335 338 337 334 327 331 329 325 325 326 327 325 324 319
226 230 227 234 238 244 257 276 288 283 276 273 271 271 277 274 277 278 283 291 300 304 309 311 310 313 318 322 327 332 333 335 329 324 330 325 325 326 324 324 325 325 320
227 224 226 233 236 241 254 272 285 266 270 271 267 271 278 275 274 277 283 291 295 302 307 305 306 311 314 319 323 328 329 330 322 320 323 323 324 328 327 322 323 323 319
224 228 240 234 239 252 252 271 267 266 270 271 269 272 278 277 276 278 283 287 293 299 301 301 303 306 310 315 320 324 326 323 316 317 320 321 319 326 326 323 322 319 315
226 234 236 236 245 255 259 269 253 259 268 271 272 273 278 277 276 279 282 285 291 295 297 299 301 305 310 313 317 320 322 316 312 315 317 320 320 325 327 326 323 318 316
227 229 230 238 248 253 256 257 246 257 267 270 273 275 276 276 276 277 280 284 289 292 293 296 300 304 308 310 314 319 322 311 306 311 316 318 321 323 326 329 327 319 319
225 226 237 244 238 249 255 246 252 257 265 270 271 276 276 274 275 278 280 283 286 289 292 295 297 301 304 307 312 318 319 308 304 309 313 314 317 322 325 328 328 323 316
248 249 233 232 241 243 246 245 255 261 267 268 269 272 274 274 274 278 281 283 285 287 290 293 297 300 302 306 309 313 318 310 301 307 309 310 314 317 321 328 332 329 325
243 246 248 239 234 241 237 246 255 262 266 265 267 270 273 274 276 279 282 284 285 285 288 292 296 299 301 304 307 311 315 311 301 300 302 301 305 310 314 320 326 331 330
241 252 273 261 259 242 234 251 262 253 264 262 263 269 273 275 278 280 281 283 285 287 288 292 295 299 302 304 306 307 309 307 300 295 295 293 296 300 307 312 316 320 324
244 249 258 245 241 243 257 263 260 249 254 259 263 266 271 276 280 280 282 283 285 287 290 293 298 302 303 303 305 306 306 304 298 291 292 291 292 292 296 302 309 312 312
241 245 256 265 263 256 255 261 245 252 256 261 266 270 274 279 281 282 283 286 289 291 295 299 300 301 302 302 304 305 302 297 293 286 288 287 290 291 290 294 298 301 305
242 241 252 234 242 264 251 253 258 256 261 268 272 274 277 279 280 283 287 289 292 296 299 298 297 297 299 301 300 299 299 295 290 287 290 287 288 288 290 291 293 295 297